Location: Newark
(34.0131°N, 4.3314°W)
Time: 10:36:35
(UTC+00:00)

Transit 2A Rocket - Pass Details

Date: 22 October 2019
Orbit: 594 x 909 km, 66.7° (Epoch: 13 November)

Event Time Altitude Azimuth Distance (km) Brightness Sun altitude
Rises 05:23:02 0° 240° (WSW) 3,237 - -14.1°
Reaches altitude 10° 05:26:03 10° 255° (WSW) 2,251 - -13.5°
Exits shadow 05:28:24 19° 280° (W) 1,694 6.1 -13.0°
Maximum altitude 05:29:53 21° 304° (NW) 1,557 6.1 -12.7°
Drops below altitude 10° 05:33:31 10° 354° (N) 2,107 7.2 -11.9°
Sets 05:36:16 0° 11° (N) 2,972 8.1 -11.4°
